Погода в Успенке

Казахстан     52°54′25″N   77°25′09″E
темп.,
°C
ветер,
м/с
пор.,
м/с
влажн.,
%
обл.,
%
осадки,
мм/ч
давл.,
гПа
погр.,
м
2 марта, вт
вт200:00−8сз359699 0.3 1013126
03:00−14з479694 0.0 1015118
06:00−17з349784 0.1 101749
09:00−17з349768 0.0 101866
12:00−14зюз239165 0.0 1018241
15:00−12юз2391100 0.0 1017321
18:00−14з2295100 0.0 101720
21:00−15зюз1295100 0.0 101720
3 марта, ср
ср300:00−17зюз229691 0.1 101720
03:00−15зюз239678 0.1 101760
06:00−15юз239678 0.2 101853
09:00−13юз489590 0.1 1019322
12:00−13юз589292 0.2 1020412
15:00−12ююз698997 0.0 1020473
18:00−13ююз5109296 0.0 1021264
21:00−13ююз6118939 0.0 1021253
4 марта, чт
чт400:00−11ююз7128870 0.0 1020326
03:00−10ююз71289100 0.0 1019297
06:00−9ююз71290100 0.0 1019343
09:00−8ююз81388100 0.0 1018423
12:00−4ююз81386100 0.0 1017628
15:00−2ююз81484100 0.0 1016700
18:00−3ююз71582100 0.0 1015514
21:00−4ю81682100 0.0 1013463
5 марта, пт
пт500:00−5ююз8158184 0.0 1013416
03:00−5ююз71389100 0.1 1011440
06:00−4юз71389100 0.3 1011425
09:00−4зюз8139358 0.1 1013489
12:00−5з7128463 0.1 1017800
15:00−5юз812831 0.0 1020624
18:00−5ююз9178121 0.0 1021672
21:00−5юз10187778 0.0 1020800
6 марта, сб
сб600:00−6юз9178189 0.0 1020727
03:00−6юз91780100 0.0 1019730
06:00−7юз91779100 0.0 1019735
09:00−7юз91780100 0.0 1018706
12:00−5юз91583100 0.0 1017817
15:00−3зюз91386100 0.0 1017818
18:00−4зюз61290100 0.1 1018635
21:00−7юз4895100 0.0 1019154